Theta_e
331 330 328 328 328 327 326 327 327 328 329 330 331 332 331 330 329 330 330 329 329 329 327 326 327 329 331 331 331 330 329 329 330 328 326 326 327 327 327 327 326 327 328 328 328 327 327 327 327 326 324 321 321 321 321 320 319 319 319 319 320 321 322
330 329 327 327 327 327 327 327 328 329 330 331 331 332 332 330 329 329 329 328 328 328 327 327 328 329 330 331 331 331 329 329 328 328 327 327 327 326 326 326 326 328 328 327 328 327 326 326 327 326 323 320 320 320 320 319 319 317 317 318 319 320 322
328 327 327 326 326 327 327 327 328 329 330 331 331 331 331 330 330 329 329 328 328 327 327 330 330 330 329 330 331 330 329 329 327 327 328 328 327 327 326 325 326 328 327 326 327 327 327 326 326 327 324 321 319 318 318 318 318 317 316 316 315 316 318
325 327 328 328 327 327 326 326 327 329 330 330 330 330 330 330 330 329 329 329 329 328 328 331 331 331 329 329 330 329 328 329 328 328 329 329 328 327 327 326 326 328 327 326 327 327 327 326 326 327 326 323 320 318 318 317 317 316 315 314 313 313 314
324 326 328 327 326 325 324 324 326 328 330 330 328 327 327 328 329 329 329 330 330 329 330 331 331 331 330 328 329 329 327 327 328 329 329 329 329 328 327 326 326 327 327 326 327 326 326 326 326 326 325 324 322 319 317 316 316 316 314 313 313 312 311
325 325 326 327 326 325 323 325 326 327 329 329 326 325 324 326 328 329 329 330 330 329 329 331 331 331 331 329 329 328 327 327 327 327 328 329 329 328 327 326 327 327 327 326 326 326 326 326 326 326 324 323 322 318 316 316 316 315 313 312 312 311 310
326 325 325 328 327 325 324 326 326 327 329 328 325 324 322 323 325 327 329 330 331 329 328 329 330 331 331 330 329 328 327 327 327 327 327 328 328 327 327 326 326 327 327 326 326 326 326 326 326 325 324 323 320 317 315 315 314 313 312 311 311 311 310
327 324 325 327 326 324 324 325 326 329 330 327 325 324 322 322 322 324 326 328 329 328 328 328 329 329 330 329 330 329 327 327 327 327 327 327 327 326 326 326 326 327 327 326 326 325 325 326 326 325 323 321 317 314 313 313 312 311 311 311 311 311 310
327 324 323 323 323 323 323 324 326 329 330 327 325 323 321 322 322 321 322 324 324 325 326 326 328 328 328 329 330 330 328 328 328 327 327 327 325 325 325 325 324 326 327 326 326 325 324 325 325 324 323 320 315 313 312 312 311 311 311 310 311 311 310
325 322 321 321 322 322 322 324 327 329 329 327 325 323 322 323 322 320 321 321 321 322 323 325 326 328 328 328 328 329 328 327 327 328 328 326 324 323 324 323 322 324 326 326 326 325 324 324 325 324 323 321 316 313 312 311 311 311 311 310 311 311 311
322 320 320 320 320 322 323 326 329 330 329 328 326 323 321 322 321 321 320 320 320 320 321 322 324 325 327 328 328 328 328 326 326 327 327 326 326 324 324 323 323 324 326 326 326 325 325 325 325 324 322 320 317 314 312 311 311 311 311 310 311 311 311
320 320 322 321 321 322 324 328 330 329 329 329 326 322 320 318 317 318 318 317 318 319 321 321 320 321 324 326 327 328 327 327 326 326 326 326 326 326 325 325 325 325 326 326 326 325 325 325 325 324 321 320 319 316 313 313 312 312 311 311 311 311 311
319 321 323 322 322 323 326 329 329 328 328 329 326 326 324 318 314 316 316 315 317 319 321 322 319 318 322 325 328 328 327 327 327 326 326 327 326 326 326 325 325 325 326 326 326 325 325 324 324 323 321 321 321 317 315 315 314 312 311 311 311 311 311
320 322 323 322 322 324 328 330 327 326 328 328 327 326 325 320 316 315 315 316 319 320 321 321 319 318 320 322 326 328 328 328 327 327 328 327 327 326 326 325 325 325 326 326 326 326 325 325 324 323 321 321 319 316 315 316 314 312 312 312 312 311 311
321 322 322 321 322 325 328 328 326 326 327 327 325 322 319 318 316 316 318 320 322 322 320 320 319 319 320 321 325 328 328 327 327 328 328 328 327 327 327 327 326 325 326 326 326 326 326 326 324 321 321 320 318 316 315 316 315 314 314 314 313 311 311
322 323 321 321 323 326 327 328 327 326 326 324 320 319 322 321 319 321 324 324 324 324 323 323 322 320 320 323 326 328 327 327 328 327 327 327 327 327 327 327 327 326 326 326 326 326 326 325 323 321 321 320 318 317 315 315 316 315 314 315 315 313 312
323 323 321 322 324 325 326 328 327 325 325 322 318 322 326 325 323 324 324 323 324 325 324 325 325 324 323 324 325 326 326 327 328 327 327 327 327 326 327 327 327 327 326 326 326 325 324 323 321 321 321 318 317 315 314 314 315 315 315 316 315 315 314
324 323 322 323 324 324 326 327 325 324 326 324 322 325 327 325 325 325 322 321 324 324 324 324 325 325 325 325 325 326 327 327 327 325 325 325 324 324 326 327 328 327 326 326 326 324 323 322 321 320 319 317 316 313 313 315 316 316 316 316 314 314 316
325 324 323 324 325 326 326 324 323 325 326 324 324 326 326 324 324 323 321 322 323 323 323 324 323 324 325 324 324 326 326 325 324 323 322 322 322 322 323 324 326 327 325 325 325 323 322 321 319 320 319 316 316 314 313 316 317 316 317 317 315 314 315
326 325 324 325 326 326 324 322 323 325 325 325 326 326 324 322 322 323 322 322 322 322 322 322 322 323 323 324 324 325 324 323 323 322 321 322 322 322 321 321 324 325 324 324 324 323 322 321 318 319 319 316 317 315 313 315 317 316 317 317 316 315 314
325 325 326 325 325 324 323 323 325 325 325 325 325 324 323 322 322 324 323 322 321 321 320 321 322 322 322 323 323 323 323 323 323 322 321 321 321 320 321 321 322 323 324 325 325 322 322 321 319 319 319 317 317 317 315 314 315 316 316 316 317 316 316
325 325 325 325 324 324 324 325 326 325 324 325 324 323 324 323 323 324 323 322 321 320 320 320 321 321 321 322 322 322 322 322 322 322 320 320 321 320 321 322 321 321 322 323 324 323 321 321 319 319 319 317 317 318 317 316 315 316 316 316 316 317 317
326 325 324 324 325 325 325 325 325 324 324 324 323 323 323 323 323 323 323 322 321 320 320 320 320 320 320 320 320 321 321 321 322 321 320 321 321 320 321 321 321 321 321 321 322 323 322 320 319 319 319 318 318 318 318 318 318 317 317 317 318 318 318
324 325 324 325 326 326 325 325 324 324 324 323 322 322 323 322 322 322 322 321 321 321 320 319 320 320 319 319 319 320 320 321 321 321 320 321 321 320 321 321 320 321 321 321 321 321 322 321 320 320 320 319 319 320 320 320 320 319 319 318 318 318 318
322 324 325 325 326 325 325 325 325 325 323 323 322 322 321 320 320 320 320 320 320 320 319 319 319 319 319 319 319 319 320 320 320 320 320 320 320 320 320 320 320 320 320 320 320 319 320 320 320 320 321 320 320 321 321 321 321 320 319 319 319 318 318
322 325 325 325 325 325 325 325 325 325 323 322 322 321 319 319 319 319 319 319 319 318 316 316 317 318 318 318 318 318 319 319 319 319 319 318 318 320 319 319 319 320 319 318 318 317 317 317 316 316 317 319 320 321 321 321 320 320 319 319 319 319 318
325 326 325 325 325 325 325 326 325 324 322 321 320 319 318 318 318 318 318 318 317 313 310 309 311 313 314 315 317 318 318 318 318 318 318 318 317 319 320 319 319 319 319 318 317 317 318 318 317 316 315 315 317 319 320 320 320 319 318 318 319 319 319
326 326 326 325 325 325 325 325 324 323 322 320 319 319 319 319 318 318 318 316 314 311 309 308 308 308 308 310 313 314 316 318 318 317 318 318 318 319 320 320 320 320 320 320 318 317 318 319 320 320 319 318 317 318 318 317 317 316 315 314 315 317 318
326 326 325 325 324 325 325 323 323 322 321 320 319 319 319 319 318 317 315 313 311 311 312 312 311 310 309 309 310 311 314 318 318 317 318 319 318 319 319 319 320 320 319 319 320 318 317 317 319 320 320 320 319 319 319 318 318 317 316 315 314 314 315
323 323 323 323 323 324 323 322 322 321 320 319 319 320 319 318 316 315 313 312 312 312 313 313 313 312 312 312 311 311 313 317 318 318 319 319 318 318 318 319 319 319 318 319 319 319 319 318 318 318 318 317 316 317 318 319 319 319 319 318 318 317 316
320 320 321 322 322 322 321 319 319 318 318 317 316 317 316 316 315 315 314 314 313 312 313 313 313 313 313 313 314 313 314 317 318 318 319 319 318 318 319 319 319 318 318 318 318 318 319 318 317 317 316 315 314 315 316 317 318 318 318 318 318 319 318
318 318 319 320 320 320 318 318 318 318 317 316 315 316 316 316 315 315 315 315 314 314 314 314 314 314 314 314 315 315 315 317 318 319 319 319 319 319 319 319 318 318 317 317 317 317 317 317 317 317 316 316 316 316 316 316 316 316 317 317 318 318 318
316 317 317 317 317 317 317 317 317 317 317 316 316 316 316 315 315 314 314 314 314 314 315 314 314 314 315 315 316 316 315 316 317 318 318 316 316 317 318 317 316 316 316 316 316 317 317 317 317 317 317 317 317 317 316 317 317 317 316 316 316 316 316
314 314 314 314 315 315 316 316 316 316 316 317 316 316 316 315 314 314 314 315 315 316 316 316 316 317 317 317 317 316 316 316 316 317 317 314 312 313 314 314 314 315 315 315 315 315 315 314 313 312 311 310 310 310 310 310 311 311 311 311 311 310 310
311 311 311 311 312 313 313 314 314 314 314 315 315 314 314 314 314 314 314 315 316 316 316 316 316 316 316 316 317 317 317 316 315 315 315 314 312 311 311 312 313 313 313 312 312 311 310 310 309 308 308 308 307 307 306 305 306 306 305 305 304 304 304
306 306 306 307 308 309 311 311 311 310 310 310 310 311 311 311 312 312 312 312 313 313 313 312 313 313 313 314 314 315 315 315 315 314 313 312 311 310 309 310 310 311 310 310 309 309 308 308 308 308 307 307 307 306 305 304 304 304 303 302 301 301 301
300 300 300 301 302 303 304 305 306 307 308 307 307 307 307 308 309 308 308 307 306 306 305 305 306 307 308 308 309 310 310 311 311 310 309 309 308 307 307 308 307 307 307 307 306 304 303 303 302 302 302 301 301 301 300 300 300 300 300 300 300 300 300
Wind_Speed
18 18 18 18 18 18 16 14 12 10 9 11 12 11 12 11 10 11 11 11 12 12 13 14 12 11 10 11 11 12 14 14 12 12 13 12 12 11 10 7 5 8 12 12 13 14 17 18 15 13 12 11 13 14 12 11 8 9 9 9 9 9 5
17 16 18 20 19 18 17 13 11 11 10 10 10 10 11 10 9 10 11 11 11 11 13 13 11 11 13 13 13 12 13 13 12 12 12 13 12 11 12 10 7 9 12 12 12 13 16 18 16 14 15 15 15 14 11 9 8 10 10 10 10 10 9
19 18 19 21 21 19 17 14 12 12 11 10 11 10 9 10 9 10 10 11 11 11 13 13 11 11 13 14 14 13 12 12 13 12 11 12 12 11 11 11 9 10 13 12 12 14 14 14 15 15 16 17 16 14 10 8 11 13 11 10 9 10 11
21 21 21 21 21 19 17 15 13 13 11 10 11 11 10 10 10 10 10 10 10 11 13 12 11 11 12 14 14 14 14 13 13 13 12 11 11 11 11 12 11 11 13 12 12 15 14 13 15 14 14 15 14 12 10 8 10 12 12 11 8 9 10
22 22 21 19 19 18 16 15 14 13 12 10 11 12 11 11 11 10 10 10 10 11 13 12 11 11 11 12 13 14 14 13 13 14 14 13 13 12 11 11 11 11 12 11 11 14 14 14 15 14 14 13 11 10 11 11 9 9 11 11 10 11 10
24 24 21 18 17 16 15 15 15 14 11 11 12 12 12 12 12 11 11 11 10 11 13 13 12 11 10 11 11 11 13 14 15 15 14 15 14 14 13 12 11 11 11 11 10 11 12 13 15 14 14 15 14 12 12 13 11 10 10 10 11 11 9
26 25 21 18 16 15 15 15 15 13 11 13 13 13 13 12 11 11 11 11 11 10 12 12 12 12 11 10 9 9 12 15 15 15 14 14 15 15 14 13 13 12 11 11 10 11 13 14 15 16 15 15 15 12 11 13 13 12 11 10 11 10 7
25 24 22 19 16 17 17 16 15 13 12 14 14 14 13 12 12 12 11 11 11 10 11 10 11 12 11 10 9 9 11 14 14 14 14 13 15 15 14 15 15 12 12 11 10 11 15 16 16 17 16 15 15 12 12 14 14 13 14 13 12 9 8
25 25 24 21 19 19 18 17 15 14 13 14 15 15 14 13 13 12 11 11 10 10 10 8 8 10 9 10 11 10 10 12 12 13 13 13 15 16 16 18 16 13 13 11 10 11 16 17 17 17 17 16 17 17 16 16 15 15 15 14 13 12 11
26 27 27 24 22 19 18 18 15 13 13 13 15 16 15 15 15 13 12 12 10 9 9 8 8 8 8 9 10 10 10 11 11 11 12 13 14 15 16 18 17 16 14 12 12 13 16 17 15 17 19 17 15 17 18 17 17 16 16 15 14 14 12
29 29 28 26 24 21 19 18 16 15 15 14 16 17 17 17 17 15 14 12 10 8 7 8 8 7 7 7 8 8 9 10 11 11 11 12 14 14 15 16 17 17 16 14 14 15 16 17 14 15 19 16 13 15 17 16 16 16 17 16 15 14 12
32 30 27 26 25 23 20 18 18 18 17 15 15 15 16 17 18 17 16 13 10 8 7 8 8 8 7 7 7 7 8 9 9 10 11 11 13 13 13 15 17 17 16 15 15 15 15 17 15 16 19 16 12 14 16 17 17 15 15 16 15 13 11
35 30 27 27 27 24 21 19 21 20 16 15 13 12 13 14 17 17 15 12 11 9 8 7 7 8 7 7 7 6 6 8 9 10 10 10 11 11 11 13 16 16 16 16 15 14 13 14 15 17 18 12 9 13 15 16 18 16 12 14 16 13 10
36 31 28 28 27 24 21 20 21 18 15 15 13 13 12 10 13 14 13 12 11 10 10 9 8 8 7 8 7 6 7 8 10 9 9 10 10 11 11 11 14 16 16 16 15 13 13 13 14 17 18 10 8 13 14 14 19 18 13 13 13 12 11
34 32 30 29 27 24 22 20 19 18 16 16 14 12 10 9 11 12 11 10 8 8 8 8 7 7 7 7 6 7 8 8 9 9 9 10 10 11 11 11 13 15 15 16 16 15 14 14 15 17 16 10 8 12 13 13 18 19 17 16 13 12 15
34 32 31 30 28 24 21 20 20 19 16 15 13 11 10 10 11 11 9 8 6 5 5 4 4 5 6 6 6 8 9 7 9 10 9 9 9 10 10 11 13 14 14 16 15 14 13 13 16 17 15 12 10 13 14 14 15 18 20 20 16 15 17
33 32 31 30 27 24 22 21 20 18 15 14 13 13 12 10 11 10 9 8 6 5 5 5 5 5 5 6 7 7 8 7 9 10 8 8 8 9 9 11 13 13 14 15 14 14 14 14 17 16 13 14 12 13 15 14 15 19 20 19 19 17 17
33 32 31 29 27 26 24 22 20 17 15 14 14 14 13 12 12 11 9 8 6 5 6 6 7 6 6 7 7 6 6 7 9 10 8 7 7 7 8 10 12 13 14 14 14 16 16 15 17 13 12 14 11 12 13 12 15 19 15 14 16 17 17
34 33 31 29 28 27 25 22 20 18 16 15 15 15 14 13 12 10 9 8 6 4 4 4 4 4 5 5 6 7 7 7 6 8 7 5 6 6 4 6 11 14 14 13 14 18 16 13 15 12 12 14 10 10 12 10 13 17 13 12 12 13 17
33 31 29 29 28 25 23 23 20 18 16 16 16 15 13 12 11 9 9 8 6 4 4 4 4 4 3 4 5 6 6 6 5 7 8 6 7 7 3 3 7 11 13 13 14 19 17 13 13 10 10 14 12 12 15 13 11 13 13 13 11 11 14
32 31 29 28 28 24 23 23 20 19 19 18 16 14 11 11 11 10 10 8 7 8 10 9 8 7 7 6 6 6 8 8 6 8 11 8 7 7 3 4 5 5 9 12 14 18 17 15 16 12 9 14 14 12 15 17 14 13 13 13 11 11 12
32 32 30 28 27 25 23 23 23 22 21 20 18 15 13 12 12 12 12 9 8 10 12 12 10 10 10 8 7 7 9 10 7 8 12 9 7 8 7 6 7 5 7 9 12 18 19 17 19 15 10 15 14 9 11 15 14 14 14 13 12 11 12
33 32 30 27 26 26 25 25 24 22 20 19 18 16 14 13 12 12 12 12 12 10 12 13 12 11 11 10 10 9 9 10 9 9 10 8 8 11 8 5 7 7 7 6 9 16 20 19 20 17 13 14 14 9 11 13 11 12 14 13 12 13 13
33 31 30 29 28 26 25 24 23 22 20 19 17 17 16 14 12 12 13 15 15 12 13 13 12 12 12 12 12 10 8 9 9 9 10 8 8 11 9 7 8 9 9 9 9 13 16 17 19 19 16 16 15 12 12 13 12 13 13 12 13 14 14
32 30 28 28 27 26 25 24 22 20 20 19 18 17 17 15 15 17 17 16 15 14 14 14 14 14 14 14 14 11 8 8 8 9 9 8 8 9 9 9 10 10 10 11 12 14 15 16 17 18 18 18 18 17 15 16 16 15 15 14 15 15 15
33 31 29 28 29 29 28 26 24 23 22 21 21 20 19 18 19 19 18 15 12 11 12 13 15 15 16 17 16 13 11 8 7 8 8 7 7 7 8 9 10 10 9 9 10 12 13 14 14 15 17 18 20 20 18 19 19 18 18 17 17 18 19
36 36 35 34 34 33 30 28 28 28 26 24 24 23 22 22 20 18 16 13 9 8 7 9 12 13 15 18 18 16 12 7 5 7 6 7 8 7 7 10 10 9 8 8 8 9 9 9 10 12 14 16 19 20 20 21 21 21 20 20 20 20 20
36 37 36 35 34 32 30 29 29 29 29 27 25 24 23 21 18 14 12 11 8 6 5 5 7 8 11 14 17 18 14 7 7 8 6 7 9 8 8 10 11 10 9 8 8 9 11 9 7 7 8 10 13 16 18 19 20 20 21 21 22 23 23
29 30 30 31 30 28 28 28 28 28 28 27 25 24 23 20 15 11 9 9 8 6 5 6 6 6 7 8 10 14 14 9 8 8 7 6 8 7 8 10 11 11 10 8 8 9 12 12 11 10 9 8 9 9 11 13 15 16 18 19 21 22 24
23 23 25 27 28 28 28 27 27 27 26 26 24 23 21 18 12 8 7 6 6 5 6 7 7 7 8 8 9 11 11 8 7 8 8 8 8 8 9 11 11 11 11 10 10 10 11 13 14 14 14 13 12 10 10 12 14 15 16 18 19 20 22
23 23 24 25 26 27 25 23 23 22 21 21 21 20 18 14 9 6 5 5 6 7 8 9 10 10 10 10 11 11 10 7 8 9 8 9 10 10 10 11 12 12 13 12 12 13 13 13 14 14 15 15 14 14 15 17 18 19 19 20 21 22 24
20 21 22 22 22 22 19 16 15 14 15 17 17 15 12 11 10 9 10 12 12 12 12 11 11 12 13 13 14 13 11 9 10 9 6 5 9 10 9 10 11 12 13 14 14 14 14 14 14 15 15 16 17 18 19 20 21 22 23 23 25 26 28
14 14 15 14 14 14 14 13 12 11 13 13 12 11 10 11 11 10 11 13 13 13 14 13 13 14 15 15 15 15 14 12 11 12 10 6 5 7 8 9 10 11 13 14 15 15 15 15 15 15 16 17 18 19 20 21 22 23 24 25 26 27 28
12 11 11 10 9 10 10 10 10 9 9 9 8 9 10 10 9 9 9 11 12 13 13 13 14 15 14 14 15 15 16 14 13 14 14 10 7 9 11 11 12 13 13 14 15 14 14 14 14 15 16 17 19 20 21 22 23 24 25 27 28 29 29
13 12 11 10 10 10 10 10 10 8 7 6 6 7 8 8 8 8 8 9 10 10 10 11 12 12 12 12 12 13 15 15 14 14 15 14 11 12 12 11 12 14 13 13 14 14 16 17 18 19 20 22 23 25 26 27 27 28 29 30 31 32 32
12 11 10 9 9 9 9 8 8 9 8 6 5 5 4 4 4 4 4 5 6 7 8 9 10 10 11 11 12 13 14 14 14 15 15 14 15 16 15 13 14 16 17 18 18 20 22 23 23 24 25 25 27 27 28 28 29 30 31 32 33 34 33
12 12 11 11 11 10 10 8 7 9 10 8 6 6 5 4 2 2 3 3 4 4 5 7 8 9 10 11 11 12 13 13 14 15 14 14 17 17 17 17 17 18 19 21 22 23 23 22 22 22 23 24 25 25 25 25 25 26 27 29 29 28 28
Wind_Direction
199 198 195 194 195 196 202 206 206 205 206 210 206 199 206 214 212 204 193 186 188 191 191 192 191 181 176 179 182 181 180 181 183 186 187 183 182 181 176 166 149 160 165 162 158 156 151 146 143 147 153 155 154 156 169 187 176 138 125 120 114 105 91
200 202 202 201 201 201 204 206 205 202 197 200 203 202 205 206 205 203 195 187 189 191 186 188 192 181 177 183 187 185 185 186 184 189 194 187 185 186 179 172 157 160 170 166 165 171 163 154 152 159 165 164 158 158 178 193 156 128 123 127 136 137 144
196 205 211 209 205 204 206 204 203 200 193 193 198 202 204 199 198 200 195 187 186 188 182 179 185 187 185 189 190 187 190 190 181 188 198 188 183 182 179 180 176 176 179 174 172 173 170 164 161 168 174 175 172 166 174 175 150 144 144 146 154 152 168
192 202 211 210 204 204 207 203 201 197 189 193 199 198 199 197 195 195 189 184 186 185 180 177 183 189 191 193 190 186 190 188 178 184 194 190 188 185 183 187 191 193 185 177 178 178 178 171 165 171 176 178 185 179 167 158 151 148 142 143 147 152 178
190 199 207 207 203 204 205 200 198 194 185 192 201 200 200 195 190 188 184 185 189 184 178 177 180 188 197 200 196 192 196 195 187 191 194 192 190 187 187 195 200 200 190 183 184 184 184 178 171 172 167 167 178 172 157 149 147 146 147 154 159 168 191
189 196 202 202 202 201 199 197 195 192 188 196 202 200 201 199 190 186 183 183 186 183 180 181 178 183 197 204 202 200 203 205 200 200 198 194 196 195 191 195 201 201 199 194 188 187 189 181 173 170 170 171 167 158 155 155 157 159 160 163 164 182 208
189 190 192 195 200 196 195 198 194 191 195 202 202 200 203 203 196 191 186 183 186 184 183 188 187 187 195 200 203 205 202 204 204 202 200 198 203 205 199 200 202 204 206 197 188 194 192 182 173 171 175 173 160 154 156 159 165 163 161 165 167 191 217
185 183 184 190 191 188 193 198 194 195 203 204 205 204 202 204 205 202 194 189 191 188 186 190 188 191 197 193 196 206 201 202 203 199 199 201 206 206 204 208 207 207 213 202 192 197 193 189 184 173 170 163 154 158 163 163 171 168 162 164 166 191 216
183 181 181 182 180 181 190 197 196 199 206 206 208 208 201 203 211 209 203 200 197 192 191 189 183 192 200 191 193 203 204 205 205 202 201 200 204 205 204 210 211 210 214 205 198 199 192 192 189 174 171 171 163 164 168 169 172 167 163 164 166 191 221
187 181 175 173 173 178 192 198 195 198 206 206 208 211 205 204 209 209 209 209 201 195 195 188 182 188 192 189 194 202 204 205 204 205 205 201 204 207 207 214 215 213 212 201 196 198 189 187 187 177 176 179 173 168 171 175 172 166 166 170 174 191 221
185 176 169 172 175 180 191 194 189 195 205 207 209 213 210 206 207 206 209 207 199 197 197 191 187 187 188 186 188 192 200 207 208 209 209 204 204 206 209 216 216 213 211 202 193 193 189 186 189 185 177 174 178 177 177 174 166 164 169 177 187 199 214
176 171 169 174 178 183 186 187 190 196 202 206 209 208 201 201 202 202 205 201 195 196 197 196 194 192 191 184 183 188 196 212 218 215 216 214 208 208 210 212 213 210 207 201 194 189 188 190 193 188 177 176 189 191 186 174 163 166 176 182 194 206 217
171 170 172 174 179 182 183 189 195 195 197 202 204 196 189 194 195 197 200 196 194 198 199 206 206 201 194 179 183 194 195 206 211 207 212 215 215 220 217 211 208 204 199 198 197 190 183 190 200 192 182 193 217 201 192 182 169 169 179 188 195 202 218
172 172 174 175 177 178 182 193 195 191 195 197 196 193 191 194 194 194 196 192 195 201 205 211 209 203 197 181 183 196 200 202 200 202 207 204 209 220 220 215 206 198 196 194 194 192 184 186 199 193 184 197 215 191 188 181 168 165 172 188 194 198 214
175 172 174 176 178 180 185 191 189 189 195 196 197 197 194 199 195 190 191 189 192 203 209 215 214 208 203 191 186 197 205 200 190 199 209 203 204 207 207 211 204 197 195 193 192 195 192 190 193 187 181 188 207 202 199 186 172 172 178 182 185 196 211
175 172 175 177 179 182 183 184 187 191 195 197 195 184 184 194 184 175 180 179 177 192 201 216 233 226 208 199 197 198 203 201 189 198 209 203 201 206 207 203 199 198 195 194 198 196 193 195 186 178 180 190 214 225 213 196 189 188 187 184 184 195 209
175 174 177 179 179 178 180 185 189 187 187 189 178 169 182 186 169 171 181 171 168 181 182 194 222 228 207 202 210 203 197 196 192 195 204 203 199 206 213 200 194 200 199 201 203 188 186 195 183 178 190 197 215 229 213 204 206 198 190 189 187 193 214
175 176 178 177 175 176 181 185 184 178 178 179 168 170 184 176 166 177 173 157 169 180 179 197 213 214 204 203 204 193 188 196 199 198 201 204 199 202 217 210 201 201 199 206 203 181 183 195 184 184 199 195 207 222 205 202 206 198 195 201 196 195 214
175 176 175 172 173 178 183 182 178 174 171 170 171 178 184 173 168 173 159 156 175 166 169 215 224 203 196 200 190 184 192 198 198 195 187 177 182 194 237 231 209 205 204 210 199 178 181 194 190 196 204 193 200 213 203 199 194 191 200 215 209 194 204
177 173 170 172 174 178 183 179 173 169 165 170 178 180 178 168 162 168 170 170 173 164 173 200 205 185 168 174 175 173 178 175 182 185 164 151 189 208 263 253 209 213 214 213 197 180 183 199 203 213 212 199 201 209 210 210 193 187 198 209 207 194 202
177 172 170 174 176 178 180 176 169 167 167 172 175 171 167 163 165 177 181 174 183 197 197 195 191 180 169 174 177 169 164 167 190 187 157 151 194 200 199 212 208 222 218 209 198 188 188 198 207 217 209 197 207 219 216 216 211 205 211 220 222 211 212
177 174 172 175 178 180 179 174 171 172 174 173 168 161 162 172 180 180 173 178 202 205 201 205 204 193 183 179 175 179 177 169 178 182 162 160 190 178 168 194 199 209 219 213 203 196 193 194 204 216 207 194 207 222 208 207 213 213 216 231 244 237 235
177 175 174 176 180 182 182 177 173 173 174 170 163 160 166 178 184 174 173 196 213 205 199 207 210 204 197 187 177 185 192 178 174 184 178 175 189 184 181 203 205 203 209 213 210 204 200 198 204 215 215 205 210 208 193 201 215 219 219 230 242 245 250
182 179 176 175 179 182 182 176 171 171 169 163 161 165 169 174 176 174 185 207 216 214 210 210 212 211 205 195 188 189 192 185 185 193 194 195 200 196 197 218 230 225 212 211 215 211 209 208 209 213 217 216 217 212 206 210 214 215 219 225 233 240 248
186 182 177 177 179 179 179 174 170 170 165 162 165 166 166 171 178 183 194 207 215 219 220 219 221 221 212 200 194 186 174 180 194 198 197 202 211 215 218 228 238 240 234 230 228 221 219 221 219 219 220 222 225 226 224 224 222 222 224 227 233 236 239
182 179 177 180 180 178 177 174 168 165 163 165 167 165 166 177 183 187 194 203 212 222 228 227 225 225 218 206 198 187 168 164 189 202 200 199 208 227 232 223 226 237 240 238 232 225 226 228 227 227 227 225 227 231 234 234 235 236 235 236 240 240 239
174 173 173 175 177 177 177 174 168 166 167 167 167 168 174 183 187 191 198 204 214 222 224 223 222 223 219 211 205 199 183 167 185 200 198 197 206 222 210 187 194 213 217 219 222 212 211 224 230 232 232 231 229 231 235 238 239 241 242 243 246 245 244
165 167 168 170 173 174 176 175 170 169 170 168 168 173 179 184 186 190 197 200 204 205 201 202 207 213 215 212 209 207 204 196 193 196 195 195 202 216 206 182 180 191 201 219 228 210 200 206 212 215 223 232 234 236 240 244 246 250 252 252 251 250 249
163 166 168 171 175 176 177 178 174 172 174 173 174 178 180 183 186 187 190 192 190 190 197 200 193 186 194 197 196 201 202 192 180 192 214 216 204 212 218 206 201 202 208 223 230 217 210 212 214 214 215 223 232 241 254 260 261 262 262 261 259 257 255
160 166 171 173 177 179 179 177 173 172 174 174 175 180 182 185 189 183 178 183 190 201 211 214 204 188 187 183 176 186 195 190 185 198 210 208 200 207 217 215 213 216 221 229 231 226 222 222 226 231 236 241 243 241 247 254 255 256 259 263 263 263 262
154 162 169 172 176 178 175 170 167 169 175 179 181 183 185 190 198 198 206 234 249 240 227 221 214 200 194 188 181 182 184 187 204 213 215 213 209 212 220 220 218 222 227 233 238 236 234 235 241 246 251 255 256 251 248 250 251 254 258 260 261 263 265
142 148 155 161 167 169 165 164 165 169 175 180 184 188 197 209 217 226 237 242 241 230 218 218 218 210 201 193 188 188 185 182 190 192 189 210 217 219 230 233 232 236 237 238 242 244 246 249 251 254 256 258 258 258 258 259 261 262 263 262 261 262 265
123 128 135 142 152 158 158 164 175 181 181 184 196 211 220 225 226 230 231 226 220 216 212 215 220 217 209 202 198 198 197 194 191 183 168 156 180 207 221 231 240 245 246 247 250 252 254 257 259 260 262 262 263 264 264 264 266 267 268 268 268 267 269
98 103 109 116 129 140 147 157 168 177 179 183 202 212 210 211 213 214 213 209 208 210 212 215 219 220 218 216 213 211 208 207 205 200 191 178 181 206 215 223 238 246 249 253 257 260 262 264 268 272 276 277 278 277 276 275 275 275 276 277 277 277 277
85 90 93 98 107 114 119 128 134 136 141 149 162 174 179 186 193 196 202 208 212 214 217 223 227 229 232 232 231 230 227 222 220 218 214 211 219 234 235 235 245 254 259 262 265 271 275 274 276 279 281 282 281 280 280 281 281 282 282 282 283 283 282
66 72 76 78 82 92 98 102 105 103 101 110 130 144 156 172 185 196 210 221 230 236 241 246 246 246 247 246 243 244 245 243 241 241 240 239 244 253 257 256 257 264 271 275 276 279 281 281 283 284 283 284 284 284 285 285 285 286 285 284 284 284 284
61 61 65 70 69 72 75 73 75 83 78 68 67 68 65 66 58 15 348 307 278 269 265 260 255 251 251 252 251 249 250 254 255 256 258 257 257 262 266 268 269 270 272 275 278 281 284 286 287 287 287 289 290 291 293 293 292 292 291 290 291 291 291